Location: Tierra del Sol
(32.6128°N, 116.3319°W)
Time: 15:16:34
(UTC-07:00)

Daily predictions for brighter satellites

Satellite Brightness Start Highest point End
(mag) Time Altitude Azimuth Time Altitude Azimuth Time Altitude Azimuth
YAOGAN 1 3.5 18:59:29 10° S 19:03:43 55° W 19:07:58 10° NNW
Cosmos 1709 Rocket 4.3 18:57:30 10° S 19:03:51 77° W 19:10:15 10° N
ATLAS 3B CENTAUR R/B 4.2 18:59:42 10° SW 19:07:12 60° SSE 19:27:32 11° E
Cosmos 1378 3.3 19:06:04 10° N 19:09:45 50° E 19:13:25 10° SSE
Cosmos 1766 4.1 19:06:46 10° SSE 19:10:12 29° E 19:13:38 10° NNE
Cosmos 1707 2.8 19:06:28 10° N 19:10:21 60° E 19:14:13 10° SSE
FALCON 9 R/B 1.1 19:08:30 10° W 19:10:53 66° N 19:15:43 10° E
Cosmos 2369 Rocket 3.8 19:06:56 10° NW 19:12:07 39° WSW 19:17:16 10° S
COSMOS 2406 3.3 19:06:39 10° S 19:12:14 60° ESE 19:17:52 10° NNE
Cosmos 1606 Rocket 4.4 19:08:26 10° SSW 19:12:41 54° W 19:16:56 10° N
Meteor 1-22 Rocket 4.5 19:08:11 10° SSE 19:13:37 45° E 19:18:53 10° NNE
Resurs 01 Rocket 3.5 19:15:42 11° E 19:16:53 12° ENE 19:18:30 10° NE
Cosmos 841 Rocket 3.7 19:11:53 10° SSW 19:17:01 75° WNW 19:22:10 10° NNE
Cosmos 2150 Rocket 4.0 19:12:56 10° NNW 19:18:20 82° ENE 19:23:45 10° SSE
TIMED 4.5 19:15:27 10° NNW 19:19:50 89° ENE 19:24:11 10° SSE
USA 81 4.0 19:15:05 10° N 19:20:21 66° E 19:25:34 10° SSE
Cosmos 1953 Rocket 3.6 19:16:22 10° N 19:20:43 84° W 19:25:00 10° S
Cosmos 2058 Rocket 3.2 19:16:37 10° S 19:20:58 81° W 19:25:20 10° N
Meteor 2-5 Rocket 3.7 19:15:31 10° N 19:21:19 68° E 19:26:57 10° SSE
SL-27 R/B 3.7 19:18:57 10° SSE 19:21:43 21° E 19:24:30 10° NE
USA 229 DEB 4.2 19:18:49 10° NW 19:26:00 70° WSW 19:33:18 10° SSE
USA 229 4.2 19:18:55 10° NW 19:26:06 71° WSW 19:33:23 10° SSE
Cosmos 1937 Rocket 3.8 19:22:04 10° NNW 19:27:20 72° WSW 19:32:33 10° S
Cosmos 540 Rocket 3.4 19:24:36 10° S 19:29:39 66° ESE 19:34:42 10° NNE
HJ-1C 4.3 19:28:06 14° SE 19:30:23 28° ENE 19:33:18 10° NNE
NOSS 3-1 (A) 4.3 19:23:03 10° NNW 19:30:38 51° NE 19:38:45 10° SE
ATLAS CENTAUR R/B 3.5 19:19:07 10° NW 19:31:27 53° NE 19:34:58 18° ESE
Cosmos 2184 Rocket 4.0 19:29:34 10° S 19:35:50 76° E 19:42:11 10° N
NOSS 3-1 (C) 4.1 19:30:49 10° NNW 19:38:41 75° ENE 19:47:14 10° SE
Cosmos 1805 3.5 19:38:12 10° SSE 19:41:53 42° E 19:45:34 10° NNE
CZ-3 Stage 3 1.1 19:46:45 10° SW 19:47:59 27° S 19:47:59 27° S
CZ-2D R/B 4.0 19:49:03 30° E 19:49:22 31° ENE 19:52:45 10° N
Cosmos 292 Rocket 4.0 19:47:37 10° S 19:52:13 46° ESE 19:56:52 10° NNE
Cosmos 2327 Rocket 4.5 19:48:27 10° S 19:54:34 83° W 20:00:41 10° N
ATLAS 5 CENTAUR R/B 3.7 19:54:57 10° SSE 19:55:31 13° SSE 19:55:31 13° SSE
ISS -2.3 19:57:56 10° WSW 20:00:57 35° NW 20:02:58 17° NNE
Cosmos 1943 Rocket 4.5 19:56:46 10° NW 20:01:11 24° WSW 20:05:37 10° SSW
BREEZE-M (TANK) 3.2 19:54:05 10° NW 20:05:13 77° NE 20:06:35 42° ESE
OAO 3 Copernicus 4.4 20:01:07 10° WNW 20:06:10 68° N 20:07:56 39° ENE
Spot 2 Rocket 3.8 20:08:15 39° E 20:08:46 41° ENE 20:13:28 10° N
Cosmos 962 Rocket 4.5 20:09:35 10° S 20:15:47 60° E 20:22:03 10° NNE
ALOS 4.4 20:12:21 10° SSW 20:16:15 26° W 20:20:11 10° NW
SJ-6B 3.6 20:12:39 10° S 20:16:35 53° W 20:20:27 10° NNW
Yuri Rocket 3.3 20:12:16 10° WSW 20:16:47 48° S 20:17:06 47° SSE
Gbstr 26 Del rocket 3.9 20:12:28 10° SSW 20:16:22 40° SE 20:16:22 40° SE
Meteor 1-24 Rocket 4.3 20:12:32 10° NNW 20:18:20 59° W 20:23:54 10° S
H-2A R/B 4.2 20:17:28 10° SSW 20:20:54 36° W 20:24:23 10° NNW
Cosmos 1953 3.0 20:22:56 43° NNE 20:22:56 43° NNE 20:25:44 10° N
SJ 16-02 1.6 20:19:40 10° N 20:23:17 51° NNE 20:23:17 51° NNE
Resurs 1-3 3.6 20:26:48 63° NNE 20:26:48 63° NNE 20:30:41 10° N
Cosmos 372 Rocket 4.2 20:34:28 10° NNW 20:39:42 69° WSW 20:41:01 49° SSW
Cosmos 1125 Rocket 4.0 20:35:20 10° NNW 20:40:33 58° WSW 20:42:36 35° SSW
Envisat 2.9 20:41:27 79° NNE 20:41:27 79° NNE 20:46:16 10° N
Resurs 01 Rocket 2.5 20:53:18 48° W 20:53:18 48° W 20:57:11 10° NNW
Cosmos 2341 Rocket 4.3 20:49:02 10° SSW 20:55:10 64° W 21:01:20 10° N
Milstar 3 Cent rocket 3.1 20:56:22 10° WSW 20:59:30 35° SW 20:59:30 35° SW
ATLAS 2AS CENTAUR R/B 3.6 21:05:02 10° NNW 21:11:15 42° NNE 21:11:15 42° NNE
Centaur D AC-29 4.1 21:47:09 10° WSW 21:48:37 15° WSW 21:48:37 15° WSW
